www.pogodaiklimat.ru
ПОГОДА в Роме
Время
и дата
19:53 27.06
20:53 27.06
21:53 27.06
22:53 27.06
23:53 27.06
00:53 28.06
01:53 28.06
02:53 28.06
03:02 28.06
03:53 28.06
04:31 28.06
04:53 28.06
05:49 28.06
05:53 28.06
06:21 28.06
06:29 28.06
06:53 28.06
07:49 28.06
07:53 28.06
08:53 28.06
09:16 28.06
09:31 28.06
09:53 28.06
10:02 28.06
10:53 28.06
11:53 28.06
12:53 28.06
13:53 28.06
14:53 28.06
15:53 28.06
16:53 28.06
17:53 28.06
18:53 28.06
19:53 28.06
20:53 28.06
21:53 28.06
22:53 28.06
23:53 28.06
00:53 29.06
01:53 29.06
02:53 29.06
03:53 29.06
04:53 29.06
05:53 29.06
06:53 29.06
07:53 29.06
08:53 29.06
09:53 29.06
Ветер
(напр.,м/с)
Видим. Явления Облачность Т
(С)
Тd
(С)
f
(%)
Тe
(С)
Тes
(С)
Комфортность P
(гПа)
Po
(гПа)
Тmin
(С)
Tmax
(С)
R
(мм)
R24
(мм)
S
(см)
СЗ 1 16 км 10/2 1950 м
[Ac]
+18.3 +10.0 58 +19 +19 1017.3 999.0
З 1 16 км 10/0 2400 м
[Ac]
+18.3 +10.0 58 +19 +19 1018.0 999.7
З 1 16 км 2/2 1410 м +17.2 +10.0 63 +17 +17 1018.3 1000.0
З 1 16 км 2/2 1380 м +16.1 +10.6 70 +16 +16 1018.9 1000.7
С 1 16 км 8/5 1260 м
[Ac]
+14.4 +11.1 81 +13 +13 1018.9 1000.7
СЗ 1 16 км 2/2 1950 м +12.8 +11.1 89 +12 +12 1019.2 1001.0 +12.8 +19.4
С 1 16 км 10/10 1020 м +13.3 +11.7 90 +13 +13 1019.6 1001.4
штиль 0 16 км 10/10 810 м +13.9 +12.2 89 +13 +13 1019.8 1001.7
З 1 16 км 10/10 810 м +13.9 +12.2 89 +13 +13 1001.4
З 1 16 км 10/10 1800 м +14.4 +11.7 84 +13 +13 1019.8 1001.4
СЗ 1 16 км 8/8 690 м
[Ac]
+13.3 +11.7 90 +13 +13 1002.0
СЗ 1 16 км 10/10 660 м +12.8 +11.7 93 +12 +12 1020.5 1002.0
З 1 16 км 8/8 840 м +14.0 +12.0 88 +13 +13 1002.7
З 1 16 км 8/8 810 м +14.4 +11.7 84 +13 +13 1020.9 1002.7
З 2 16 км 8/8 690 м +14.4 +11.7 84 +13 +13 1003.0
З 2 16 км 5/5 690 м +14.4 +11.7 84 +13 +14 1003.0
З 1 16 км ясно +15.6 +11.7 78 +15 +16 1021.5 1003.0 +12.8 +15.6
З 2 16 км 8/8 510 м +17.0 +12.0 72 +17 +17 1003.4
З 2 16 км 8/8 510 м +16.7 +12.2 75 +16 +17 1021.8 1003.4
СЗ 2 16 км 10/10 750 м +17.2 +12.2 72 +17 +17 1022.0 1003.7
нст 1 16 км 8/8 690 м +17.8 +12.8 73 +18 +20 1003.7
ЮЗ 2 16 км 8/8 810 м +17.8 +12.2 70 +18 +19 1003.7
З 2 16 км 10/10 810 м +17.8 +11.7 67 +18 +18 1022.4 1004.0
З 2 16 км 10/10 720 м +18.3 +12.2 68 +18 +18 1004.0
З 1 16 км 2/2 900 м +19.4 +12.2 63 +21 +34 комфорт 1022.3 1004.0
16 км 2/2 1140 м +21.7 +12.8 57 +24 +44 комфорт 1022.1 1003.7
ЮЗ 2 16 км 2/2 1200 м +22.2 +12.2 53 +25 +35 комфорт 1022.0 1003.7 +15.6 +22.2
З 2
{4}
16 км 2/2 1290 м +21.7 +12.2 55 +24 +32 комфорт 1022.0 1003.7
З 2 16 км 5/5 1350 м +22.8 +12.2 51 +25 +30 комфорт 1021.9 1003.7
нст 1 16 км 2/2 1440 м +22.2 +11.1 49 +24 +33 комфорт 1021.8 1003.4
З 2 16 км ясно +22.8 +10.0 44 +25 +29 комфорт 1021.5 1003.0
СЗ 2 16 км ясно +21.7 +11.7 53 +24 +27 комфорт 1021.5 1003.4
СЗ 1 16 км ясно +20.6 +11.7 57 +23 +24 комфорт 1021.4 1003.0 +20.6 +23.3
С 1 16 км ясно +18.3 +12.2 68 +19 +19 1021.8 1003.4
штиль 0 16 км ясно +16.7 +12.2 75 +17 +17 1022.5 1004.0
В 1 16 км ясно +14.4 +11.7 84 +14 +14 1023.0 1004.7
ЮВ 1 16 км ясно +13.3 +11.7 90 +13 +13 1022.9 1004.4
штиль 0 16 км ясно +12.8 +11.1 89 +12 +12 1022.8 1004.4
штиль 0 16 км ясно +11.7 +10.6 93 +11 +11 1022.8 1004.4 +11.7 +20.6
В 1 16 км ясно +11.7 +10.6 93 +10 +10 1022.8 1004.4
ЮВ 1 16 км ясно +11.1 +10.6 97 +10 +10 1022.5 1004.0
ЮВ 1 16 км ясно +11.1 +10.0 93 +10 +10 1022.6 1004.0
ЮВ 1 16 км ясно +11.1 +10.0 93 +10 +10 1022.9 1004.4
ЮВ 1 16 км ясно +12.8 +11.1 89 +12 +12 1022.7 1004.4
В 2 16 км ясно +16.1 +12.8 81 +15 +16 1022.4 1004.0 +11.1 +16.1
В 1 16 км ясно +18.9 +13.3 70 +20 +25 1022.5 1004.4
штиль 0 16 км ясно +21.1 +13.9 63 +24 +34 комфорт 1022.2 1003.7
нст 1 16 км ясно +23.3 +13.9 55 +27 +39 душно 1021.9 1003.4
Местоположение метеостанции Griffiss Air Force Base: широта 43.2333 долгота -75.4000 высота над уровнем моря 154 м.
В архиве по умолчанию представлена погода в Роме за последние 1-2 суток. Обновление информации о фактической погоде в базе происходит ежечасно! Архивные данные за месяц целиком и за предыдущие месяцы Вы можете получить, выбрав интересующий диапазон дат из раскрывающегося списка и нажав кнопку "Ввод!".
Внимание! Архив погоды МЕТАР в базе сайта по станциям, не включенным в климатический монитор, хранится не более 60 дней. Нет смысла пытаться выбрать более раннюю дату.
*Определитесь, кто Вы:
Внимание! Время в таблицах - местное (без учета летнего времени). Для получения всемирного времени необходимо вычесть поправку, которая равна -5 ч.
Смотрите также архив погоды в соседних городах и на ближайших метеорологических станциях:
Партнеры нашего сайта:      
Пояснения к столбцам:
  • Ветер - указаны скорость ветра в м/с - средняя за 10 мин, порывы в срок и между сроками (в фигурных скобках) и направление, откуда дует ветер: С - северный,
  • СВ - северо-восточный, В - восточный, ЮВ - юго-восточный, Ю - южный, ЮЗ - юго-западный, З - западный, СЗ - северо-западный.
  • Видимость - горизонтальная дальность видимости в метрах или километрах. При видимости от 1 до 10 км при отсутствии осадков обычно наблюдается дымка, при ухудшении видимости до 1 км и менее - туман. В сухую погоду видимость может ухудшаться дымом, пылью или мглою.
  • Явления - указаны атмосферные явления, наблюдавшиеся в срок или в последний час перед сроком; фигурными скобками обозначены явления, наблюдавшиеся между сроками (за 1-3 часа до срока); квадратными скобками обозначены град или гололедные отложения с указанием их диаметра в мм.
  • Облачность - указаны через наклонную черту общая и нижняя облачность в баллах и высота нижней границы облаков в метрах; квадратными скобками обозначены формы облаков: Ci - перистые, Cs - перисто-слоистые, Cc - перисто-кучевые, Ac - высококучевые, As - высокослоистые, Sc - слоисто-кучевые, Ns - слоисто-дождевые, Cu - кучевые, Cb - кучево-дождевые. Подробнее классификацию облаков см. в Атласе облаков (PDF).
  • T - Температура воздуха - температура, измеренная на высоте 2 м над землей.
  • Td - Температура точки росы - температура, при понижении до которой содержащийся в воздухе водяной пар достигнет насыщения.
  • f - Относительная влажность воздуха - влажноcть воздуха, измеренная на высоте 2 м над землей.
  • Te - Эффективная температура - температура, которую ощущает одетый по сезону человек в тени. Характеристика душности погоды. При расчете учитывается влияние влажности воздуха и скорости ветра на теплоощущения человека.
  • Tes - Эффективная температура на солнце - температура, которую ощущает человек, с поправкой на солнечный нагрев. Характеристика знойности погоды. Зависит от высоты солнца над горизонтом, облачности и скорости ветра. Ночью, в пасмурную погоду, а также при ветре 12 м/с и более поправка равна нулю.
  • P - Атмосферное давление - приведенное к уровню моря атмосферное давление.
  • Po - Атмосферное давление - измеренное на уровне метеостанции атмосферное давление.
  • Tmin - Минимальная температура - минимум температуры воздуха на высоте 2 м над землей.
  • Tmax - Максимальная температура - максимум температуры воздуха на высоте 2 м над землей.
  • R - Количество осадков - Количество выпавших осадков за период времени, мм. При наведении курсора мыши на число - период времени, за который выпало указанное количество осадков.
  • R24 - Количество осадков - Количество выпавших осадков за 24 часа, мм.
  • S - Снежный покров - Высота снежного покрова, см. При наведении курсора мыши на число - состояние снежного покрова и степень покрытия местности в баллах.